This is the latest recevied weather packets stored in our database for station/object SM0UQT-10. If no packets are shown the sender has not sent any weather packets the latest 1 day(s).
| Time | Temp. | Humidity | Pressure | Rain* | Wind** | Luminosity | Snow |
|---|---|---|---|---|---|---|---|
| 1778096493 | 22.78° C | 27% | 1018.6 hPa | - | - | - | - |
| 1778090256 | 22.78° C | 25% | 1018.4 hPa | - | - | - | - |
| 1778088928 | 22.78° C | 25% | 1018.2 hPa | - | - | - | - |
| 1778086680 | 23.33° C | 25% | 1018 hPa | - | - | - | - |
| 1778084214 | 23.33° C | 26% | 1017.7 hPa | - | - | - | - |
| 1778081842 | 23.89° C | 25% | 1017.6 hPa | - | - | - | - |
| 1778079326 | 20.56° C | 26% | 1017.8 hPa | - | - | - | - |
| 1778075729 | 20.56° C | 22% | 1017.8 hPa | - | - | - | - |
| 1778073375 | 20.56° C | 23% | 1018.2 hPa | - | - | - | - |
| 1778071635 | 22.78° C | 28% | 1018.2 hPa | - | - | - | - |
| 1778069728 | 22.22° C | 28% | 1018.4 hPa | - | - | - | - |
| 1778068653 | 22.78° C | 29% | 1018.5 hPa | - | - | - | - |
| 1778068528 | 22.78° C | 29% | 1018.5 hPa | - | - | - | - |
| 1778067328 | 22.22° C | 29% | 1018.7 hPa | - | - | - | - |
| 1778066880 | 22.22° C | 29% | 1018.6 hPa | - | - | - | - |
| 1778066128 | 22.22° C | 29% | 1018.6 hPa | - | - | - | - |
| 1778061712 | 22.78° C | 30% | 1019.1 hPa | - | - | - | - |
| 1778059104 | 22.78° C | 30% | 1019 hPa | - | - | - | - |
| 1778058926 | 22.78° C | 30% | 1019 hPa | - | - | - | - |
| 1778058238 | 22.78° C | 30% | 1019 hPa | - | - | - | - |
| 1778055330 | 22.78° C | 31% | 1018.9 hPa | - | - | - | - |
| 1778054222 | 22.78° C | 31% | 1018.9 hPa | - | - | - | - |
| 1778053013 | 22.78° C | 31% | 1019 hPa | - | - | - | - |
| 1778050625 | 22.78° C | 32% | 1018.9 hPa | - | - | - | - |
| 1778050529 | 22.78° C | 32% | 1018.9 hPa | - | - | - | - |
* Rain since midnight (hover to see other rain measurements)
** Current wind speed in m/s (hover to see current wind gust speed)